GW4757 Weather Reports


time (UTC)temp
C
wind
direction
speed
KPH
gust
KPH
rain 1hr
cm
rain 24hr
cm
rain mn
cm
humidity
%
barometer
mb
20260510234550 24 0 0.0 4.8 0.00 0.00 0.00 39 1015.2
20260510233101 25 0 0.0 8.0 0.00 0.00 0.00 38 1015.0
20260510231549 25 151 1.6 4.8 0.00 0.00 0.00 36 1014.9
20260510230052 26 161 3.2 14.5 0.00 0.00 0.00 35 1014.9
20260510224550 26 143 0.0 12.9 0.00 0.00 0.00 35 1014.9
20260510223054 26 182 3.2 11.3 0.00 0.00 0.00 34 1014.8
20260510221554 27 88 6.4 14.5 0.00 0.00 0.00 31 1014.6
20260510214555 27 228 4.8 14.5 0.00 0.00 0.00 32 1014.6
20260510213058 27 202 0.0 12.9 0.00 0.00 0.00 30 1014.5
20260510211556 28 118 4.8 14.5 0.00 0.00 0.00 28 1014.6
20260510210054 28 149 3.2 14.5 0.00 0.00 0.00 27 1014.5
20260510204557 28 0 3.2 14.5 0.00 0.00 0.00 26 1014.7
20260510203048 28 136 8.0 12.9 0.00 0.00 0.00 25 1014.9
20260510201604 29 132 0.0 8.0 0.00 0.00 0.00 26 1014.9
20260510200046 28 291 1.6 9.7 0.00 0.00 0.00 29 1015.1
20260510194555 28 177 3.2 16.1 0.00 0.00 0.00 30 1015.3
20260510193053 28 144 0.0 12.9 0.00 0.00 0.00 28 1015.3
20260510191558 28 150 4.8 19.3 0.00 0.00 0.00 29 1015.4
20260510190050 28 143 1.6 9.7 0.00 0.00 0.00 29 1015.5
20260510184549 28 92 1.6 16.1 0.00 0.00 0.00 27 1015.6
20260510183047 28 134 4.8 12.9 0.00 0.00 0.00 29 1015.7
20260510181605 28 115 3.2 12.9 0.00 0.00 0.00 27 1015.8
20260510180105 28 143 0.0 9.7 0.00 0.00 0.00 30 1015.9
20260510174548 28 75 3.2 12.9 0.00 0.00 0.00 28 1015.9
20260510173049 28 139 6.4 16.1 0.00 0.00 0.00 27 1016.1
20260510171550 28 105 4.8 9.7 0.00 0.00 0.00 26 1016.3
20260510170046 29 176 1.6 8.0 0.00 0.00 0.00 28 1016.3
20260510164547 28 261 0.0 4.8 0.00 0.00 0.00 27 1016.3
20260510163048 29 0 0.0 6.4 0.00 0.00 0.00 29 1016.4
20260510161547 28 352 0.0 4.8 0.00 0.00 0.00 28 1016.5
20260510160049 28 114 0.0 3.2 0.00 0.00 0.00 33 1016.7
20260510154554 27 0 1.6 4.8 0.00 0.00 0.00 30 1016.7
20260510153052 26 0 0.0 6.4 0.00 0.00 0.00 35 1016.8
20260510151555 27 193 0.0 4.8 0.00 0.00 0.00 35 1016.8
20260510150120 26 0 0.0 4.8 0.00 0.00 0.00 41 1016.9
20260510144549 26 113 0.0 1.6 0.00 0.00 0.00 45 1016.8
20260510143050 25 166 0.0 1.6 0.00 0.00 0.00 46 1016.7
20260510141544 23 0 0.0 1.6 0.00 0.00 0.00 48 1016.9
20260510140054 23 0 0.0 3.2 0.00 0.00 0.00 58 1016.9
20260510134551 23 0 0.0 1.6 0.00 0.00 0.00 60 1017.0
20260510133050 23 0 0.0 1.6 0.00 0.00 0.00 65 1016.8
20260510131551 22 0 0.0 1.6 0.00 0.00 0.00 65 1016.8
20260510130048 22 0 0.0 0.0 0.00 0.00 0.00 69 1016.6
20260510124550 20 0 0.0 0.0 0.00 0.00 0.00 80 1016.5
20260510123046 17 0 0.0 0.0 0.00 0.00 0.00 96 1016.5
20260510121543 14 0 0.0 0.0 0.00 0.00 0.00 98 1016.4
20260510120044 11 0 0.0 0.0 0.00 0.00 0.00 98 1016.1
20260510114553 10 0 0.0 0.0 0.00 0.00 0.00 97 1015.9
20260510113046 10 0 0.0 0.0 0.00 0.00 0.00 97 1015.4
20260510111558 10 0 0.0 0.0 0.00 0.00 0.00 97 1015.1
20260510110047 10 0 0.0 0.0 0.00 0.00 0.00 96 1014.9
20260510104551 10 0 0.0 0.0 0.00 0.00 0.00 97 1014.6
20260510103059 10 0 0.0 0.0 0.00 0.00 0.00 96 1014.3
20260510101553 10 0 0.0 0.0 0.00 0.00 0.00 96 1014.1
20260510100052 10 0 0.0 0.0 0.00 0.00 0.00 96 1014.0
20260510094602 10 0 0.0 0.0 0.00 0.00 0.00 96 1013.8
20260510093104 11 0 0.0 0.0 0.00 0.00 0.00 96 1013.8
20260510091553 11 0 0.0 0.0 0.00 0.00 0.00 96 1013.7
20260510090049 11 0 0.0 0.0 0.00 0.00 0.00 96 1013.6
20260510084550 11 0 0.0 0.0 0.00 0.00 0.00 96 1013.5
20260510083058 11 0 0.0 0.0 0.00 0.00 0.00 96 1013.4
20260510081549 12 0 0.0 0.0 0.00 0.00 0.00 96 1013.3
20260510080048 12 0 0.0 0.0 0.00 0.00 0.00 95 1013.0
20260510074549 12 0 0.0 0.0 0.00 0.00 0.00 95 1012.8
20260510073055 12 0 0.0 0.0 0.00 0.00 0.00 95 1012.8
20260510071549 12 0 0.0 0.0 0.00 0.00 0.00 95 1012.8
20260510070050 13 0 0.0 0.0 0.00 0.00 0.00 95 1012.6
20260510064549 13 0 0.0 0.0 0.00 0.00 0.00 95 1012.8
20260510063045 13 0 0.0 0.0 0.00 0.00 0.00 95 1012.5
20260510061544 13 0 0.0 0.0 0.00 0.00 0.00 95 1012.9
20260510060049 13 0 0.0 0.0 0.00 0.00 0.00 95 1013.0
20260510054551 14 0 0.0 0.0 0.00 0.00 0.00 94 1013.0
20260510053049 14 0 0.0 0.0 0.00 0.00 0.00 94 1012.9
20260510051600 14 0 0.0 0.0 0.00 0.00 0.00 95 1012.9
20260510050046 14 0 0.0 0.0 0.00 0.00 0.00 94 1013.3
20260510044550 15 0 0.0 0.0 0.00 0.00 0.00 94 1013.1
20260510043048 15 0 0.0 0.0 0.00 0.00 0.00 93 1013.1
20260510041551 15 0 0.0 0.0 0.00 0.00 0.00 93 1012.9
20260510040053 15 0 0.0 0.0 0.00 0.00 0.00 92 1013.1
20260510034553 15 0 0.0 0.0 0.00 0.00 0.00 91 1013.2
20260510033055 16 0 0.0 0.0 0.00 0.00 0.00 91 1013.0
20260510031613 16 0 0.0 0.0 0.00 0.00 0.00 89 1013.3
20260510030456 16 0 0.0 0.0 0.00 0.00 0.00 88 1013.2
20260510023050 17 0 0.0 0.0 0.00 0.00 0.00 86 1013.1
20260510021546 17 0 0.0 0.0 0.00 0.00 0.00 85 1012.8
20260510020046 18 0 0.0 0.0 0.00 0.00 0.00 84 1012.6
20260510014551 18 0 0.0 0.0 0.00 0.00 0.00 82 1012.2
20260510013049 18 0 0.0 1.6 0.00 0.00 0.00 81 1012.2
20260510011548 18 0 0.0 1.6 0.00 0.00 0.00 82 1012.0
20260510010047 18 0 0.0 0.0 0.00 0.00 0.00 82 1011.6
20260510004552 18 0 0.0 1.6 0.00 0.00 0.00 81 1011.3
20260510003054 19 0 0.0 0.0 0.00 0.00 0.00 79 1011.0
20260510001547 20 0 0.0 0.0 0.00 0.00 0.00 77 1010.8
20260510000051 20 0 0.0 3.2 0.00 0.00 0.00 75 1010.6